Flag for U.S.A. Weather past 2 weeks in Baltimore, Maryland, U.S.A.

Now
29 °F

Cloudy.


Feels Like: 21 °F
Forecast: 25 / 35 °F
Wind: 8 mph from Northwest

Location: Baltimore-Washington International Airport

Current Time: Jan 27, 2015 at 9:42:25 AM

Latest Report: Jan 27, 2015 at 8:54 AM


Visibility: 10 mi

Pressure: 29.79 "Hg

Humidity: 75%

Dew point: 22 °F

Location of BaltimoreLocation

Historic Weather in Baltimore — Graph

°F

Baltimore temperature yesterday

Maximum temperature yesterday: 40 °F (at 12:54 AM)
Minimum temperature yesterday: 26 °F (at 11:54 PM)
Average temperature yesterday: 31 °F

Past Weeks' High & Low Weather Summary

 TemperatureHumidityPressure
High49 °F (Jan 25, 12:54 PM)100% (Jan 18, 10:54 AM)30.58 "Hg (Jan 18, 10:54 AM)
Low22 °F (Jan 17, 7:54 AM)36% (Jan 13, 12:54 PM)29.43 "Hg (Jan 24, 1:54 PM)
Average33 °F72%30.06 "Hg
* Reported Jan 12 7:54 AM — Jan 27 7:54 AM, Baltimore, Weather by CustomWeather, © 2014

Note: Actual official high and low records may vary slightly from our data, if they occured in-between our weather recording intervals... More about our weather records

Advertising

Baltimore weather history for previous 24 hours

 ConditionsComfort  
Time TempWeatherWind HumidityBarometerVisibility
7:54 AM
Jan 27
28 °FLight snow. More clouds than sun.8 mph78%29.78 "Hg9 mi
6:54 AM28 °FLight snow. Overcast.9 mph78%29.77 "Hg7 mi
5:54 AM28 °FLight snow. Overcast.6 mph78%29.75 "Hg9 mi
4:54 AM28 °FLight snow. Overcast.7 mph78%29.73 "Hg7 mi
3:54 AM28 °FLight snow. Overcast.8 mph78%29.72 "Hg5 mi
2:54 AM27 °FLight snow. Overcast.8 mph81%29.73 "Hg6 mi
1:54 AM27 °FLight snow. Overcast.8 mph78%29.73 "Hg8 mi
12:56 AM27 °FLight snow. Ice fog.8 mph80%29.73 "Hg3 mi
11:54 PM
Jan 26
26 °FLight snow. Ice fog.9 mph84%29.74 "Hg3 mi
10:54 PM27 °FLight snow. Overcast.8 mph81%29.74 "Hg4 mi
10:03 PM28 °FLight snow. Mostly cloudy.8 mph86%29.74 "Hg5 mi
9:54 PM28 °FLight snow. Mostly cloudy.9 mph85%29.74 "Hg2 mi
8:54 PM28 °FLight snow. Mostly cloudy.7 mph85%29.74 "Hg4 mi
7:54 PM29 °FLight snow. Overcast.10 mph82%29.74 "Hg7 mi
6:54 PM30 °FLight snow. Overcast.8 mph79%29.73 "Hg7 mi
6:03 PM30 °FSleet. Ice fog.13 mph80%29.73 "Hg5 mi
5:54 PM30 °FLight snow. Ice fog.10 mph82%29.74 "Hg4 mi
4:54 PM31 °FLight snow. Overcast.9 mph82%29.72 "Hg7 mi
3:54 PM31 °FOvercast.10 mph85%29.71 "Hg10 mi
2:54 PM31 °FLight rain. Ice fog.12 mph89%29.71 "Hg5 mi
1:54 PM31 °FLight rain. Ice fog.13 mph89%29.73 "Hg4 mi
12:54 PM31 °FSleet. Mostly cloudy.15 mph89%29.75 "Hg8 mi
11:54 AM30 °FLight snow. Ice fog.10 mph92%29.78 "Hg3 mi
10:54 AM31 °FLight snow. Ice fog.12 mph89%29.81 "Hg1 mi
9:54 AM32 °FLight snow. Ice fog.14 mph88%29.82 "Hg1 mi
Weather by CustomWeather, © 2014

See weather overviewHow to use our weather pages